Velkommen til min vejrside, der er mangler og fejl som bliver opdateret. Kom snart tilbage og få vejret - Welcome to our website - Welkom op onze vernieuwde website
Bienvenue sur notre site web - Willkommen auf unserer Website - Check our progress frequently. Prüfen Sie unsere Fortschritte regelmäßig. Consultez notre progression fréquemment. Komt u straks nog eens terug


vejr3>nv more information Vejr3>NV


3 timers nedbørs radar more information rain snow radar


besøg nogle andre vejrsider:

Template dokumentation
og downloads

And another site


weather underground historie, tekst side

dagens sammenfatning af februar 09, 2018 enheder:  engelsk    metrisk   både
« forgående dag
næste dag »
dagens ugenligt månedlig årligt tilpasset
  høj: lav: gennemsnit:
temperatur: TemperatureC °F -4.3 °F -2.1 °F
dugpunkt: DewpointC °F -6.2 °F -4.4 °F
fugtighed: Humidity % 72 % 84 %
vindhastighed: WindSpeedKMH mph 1.6 mph 13.1 mph
vindstød: WindSpeedGustKMH mph - -
vind:- - ESE
lufttryk: PressurehPa in 1014.4 in -
nedbør: 0.0 in    
Historical Graphs
 
 
tabeldata for februar 09, 2018
tid temperatur dugpunkt lufttryk vind vindhastighed vindstød fugtighed regn (timme)
TemperatureC °F DewpointC °F PressurehPa in Calm     Humidity % HourlyPrecipMM in
00:04 -2.4 °F -3.8 °F 1017.8 in SSE 11.3 mph 19.3 mph 90 % 0.0 in
00:09 -2.4 °F -3.8 °F 1017.8 in SE 19.3 mph 19.3 mph 90 % 0.0 in
00:14 -2.4 °F -3.8 °F 1017.8 in SE 11.3 mph 16.1 mph 90 % 0.0 in
00:19 -2.4 °F -3.8 °F 1017.8 in SE 11.3 mph 16.1 mph 90 % 0.0 in
00:24 -2.4 °F -3.8 °F 1017.8 in SE 11.3 mph 19.3 mph 90 % 0.0 in
00:29 -2.4 °F -3.8 °F 1017.8 in SE 9.7 mph 19.3 mph 90 % 0.0 in
00:34 -2.4 °F -3.8 °F 1017.8 in SSE 11.3 mph 20.9 mph 90 % 0.0 in
00:39 -2.4 °F -3.8 °F 1017.8 in SSE 11.3 mph 19.3 mph 90 % 0.0 in
00:44 -2.4 °F -3.8 °F 1017.8 in SSE 12.9 mph 19.3 mph 90 % 0.0 in
00:49 -2.4 °F -3.8 °F 1017.8 in SE 12.9 mph 22.5 mph 90 % 0.0 in
00:54 -2.4 °F -3.8 °F 1017.8 in SE 14.5 mph 19.3 mph 90 % 0.0 in
00:59 -2.4 °F -3.8 °F 1017.8 in SE 14.5 mph 19.3 mph 90 % 0.0 in
01:04 -2.4 °F -3.8 °F 1017.8 in SE 11.3 mph 14.5 mph 90 % 0.0 in
01:09 -2.5 °F -3.9 °F 1017.8 in SE 9.7 mph 14.5 mph 90 % 0.0 in
01:14 -2.6 °F -3.9 °F 1017.8 in ESE 11.3 mph 14.5 mph 90 % 0.0 in
01:19 -2.7 °F -4.1 °F 1017.8 in SE 11.3 mph 14.5 mph 90 % 0.0 in
01:24 -2.7 °F -4.1 °F 1017.8 in SE 9.7 mph 14.5 mph 90 % 0.0 in
01:29 -2.7 °F -4.1 °F 1017.8 in ESE 11.3 mph 12.9 mph 90 % 0.0 in
01:34 -2.8 °F -4.1 °F 1017.8 in SE 11.3 mph 19.3 mph 91 % 0.0 in
01:39 -2.8 °F -4.1 °F 1017.8 in SE 11.3 mph 17.7 mph 91 % 0.0 in
01:44 -2.8 °F -4.1 °F 1017.8 in SE 11.3 mph 19.3 mph 91 % 0.0 in
01:49 -2.8 °F -4.1 °F 1017.8 in SE 11.3 mph 16.1 mph 91 % 0.0 in
01:54 -2.8 °F -4.1 °F 1017.8 in SE 11.3 mph 16.1 mph 91 % 0.0 in
01:59 -2.8 °F -4.1 °F 1017.5 in SE 12.9 mph 16.1 mph 91 % 0.0 in
02:04 -2.8 °F -4.1 °F 1017.5 in SE 11.3 mph 17.7 mph 91 % 0.0 in
02:09 -2.8 °F -4.1 °F 1017.5 in SE 16.7 mph 16.7 mph 91 % 0.0 in
02:14 -2.8 °F -4.2 °F 1017.5 in SE 18.5 mph 18.5 mph 90 % 0.0 in
02:19 -2.8 °F -4.2 °F 1017.5 in East 18.5 mph 18.5 mph 90 % 0.0 in
02:24 -2.8 °F -4.1 °F 1017.5 in SE 16.7 mph 16.7 mph 91 % 0.0 in
02:29 -2.8 °F -4.2 °F 1017.5 in SE 18.5 mph 18.5 mph 90 % 0.0 in
02:34 -2.9 °F -4.3 °F 1017.5 in SE 18.5 mph 18.5 mph 90 % 0.0 in
02:39 -2.9 °F -4.3 °F 1017.5 in SE 18.5 mph 18.5 mph 90 % 0.0 in
02:44 -2.9 °F -4.3 °F 1017.2 in SE 18.5 mph 18.5 mph 90 % 0.0 in
02:49 -2.9 °F -4.3 °F 1017.2 in ESE 14.8 mph 14.8 mph 90 % 0.0 in
02:54 -2.9 °F -4.3 °F 1017.2 in SE 16.7 mph 16.7 mph 90 % 0.0 in
02:59 -2.9 °F -4.3 °F 1017.2 in ESE 18.5 mph 18.5 mph 90 % 0.0 in
03:04 -3.0 °F -4.4 °F 1017.2 in SE 18.5 mph 18.5 mph 90 % 0.0 in
03:09 -3.0 °F -4.6 °F 1016.8 in East 18.5 mph 18.5 mph 89 % 0.0 in
03:14 -3.1 °F -4.6 °F 1016.8 in SE 16.7 mph 16.7 mph 89 % 0.0 in
03:19 -3.1 °F -4.6 °F 1016.8 in SE 18.5 mph 18.5 mph 89 % 0.0 in
03:24 -3.1 °F -4.6 °F 1016.8 in SE 18.5 mph 18.5 mph 89 % 0.0 in
03:29 -3.1 °F -4.6 °F 1017.2 in SE 18.5 mph 18.5 mph 89 % 0.0 in
03:34 -3.1 °F -4.6 °F 1016.8 in SE 20.4 mph 20.4 mph 89 % 0.0 in
03:39 -3.1 °F -4.6 °F 1016.8 in SE 12.9 mph 20.9 mph 89 % 0.0 in
03:44 -3.1 °F -4.8 °F 1016.8 in SE 11.3 mph 16.1 mph 88 % 0.0 in
03:49 -3.1 °F -4.8 °F 1016.8 in SSE 20.4 mph 20.4 mph 88 % 0.0 in
03:54 -3.1 °F -4.8 °F 1016.8 in SE 12.9 mph 14.5 mph 88 % 0.0 in
03:59 -3.1 °F -4.8 °F 1016.8 in SE 19.3 mph 19.3 mph 88 % 0.0 in
04:04 -3.1 °F -4.8 °F 1016.8 in SSE 20.4 mph 20.4 mph 88 % 0.0 in
04:09 -3.0 °F -4.8 °F 1016.8 in SSE 20.9 mph 20.9 mph 87 % 0.0 in
04:14 -2.9 °F -4.8 °F 1016.8 in ESE 16.7 mph 16.7 mph 87 % 0.0 in
04:19 -2.9 °F -4.9 °F 1016.8 in SSE 20.4 mph 20.4 mph 86 % 0.0 in
04:24 -2.9 °F -4.9 °F 1016.8 in SE 11.3 mph 16.1 mph 86 % 0.0 in
04:29 -2.9 °F -4.9 °F 1016.8 in SE 14.5 mph 20.9 mph 86 % 0.0 in
04:34 -2.9 °F -4.9 °F 1016.8 in SE 12.9 mph 19.3 mph 86 % 0.0 in
04:39 -3.0 °F -4.8 °F 1016.8 in SE 16.7 mph 16.7 mph 87 % 0.0 in
04:44 -3.1 °F -4.9 °F 1016.8 in SE 11.3 mph 19.3 mph 87 % 0.0 in
04:49 -3.1 °F -4.9 °F 1016.8 in ESE 16.7 mph 16.7 mph 87 % 0.0 in
04:54 -3.2 °F -5.0 °F 1016.8 in SE 12.9 mph 19.3 mph 87 % 0.0 in
04:59 -3.2 °F -5.1 °F 1016.8 in SE 18.5 mph 18.5 mph 87 % 0.0 in
05:04 -3.3 °F -5.1 °F 1016.5 in SE 11.3 mph 16.1 mph 87 % 0.0 in
05:09 -3.3 °F -5.2 °F 1016.5 in SE 16.7 mph 16.7 mph 87 % 0.0 in
05:14 -3.3 °F -5.2 °F 1016.5 in SE 9.7 mph 16.1 mph 87 % 0.0 in
05:19 -3.4 °F -5.2 °F 1016.5 in SE 9.7 mph 19.3 mph 87 % 0.0 in
05:24 -3.4 °F -5.3 °F 1016.5 in SE 11.3 mph 16.1 mph 87 % 0.0 in
05:29 -3.4 °F -5.3 °F 1016.1 in ESE 14.8 mph 14.8 mph 87 % 0.0 in
05:34 -3.5 °F -5.3 °F 1016.5 in SE 11.3 mph 19.3 mph 87 % 0.0 in
05:39 -3.5 °F -5.2 °F 1016.1 in SE 9.7 mph 9.7 mph 88 % 0.0 in
05:44 -3.6 °F -5.3 °F 1016.1 in SE 9.7 mph 14.5 mph 88 % 0.0 in
05:49 -3.6 °F -5.3 °F 1016.1 in SSE 13.0 mph 13.0 mph 88 % 0.0 in
05:54 -3.7 °F -5.3 °F 1016.1 in SE 9.7 mph 14.5 mph 88 % 0.0 in
05:59 -3.7 °F -5.4 °F 1016.1 in SE 9.7 mph 14.5 mph 88 % 0.0 in
06:04 -3.7 °F -5.4 °F 1016.1 in SE 8.0 mph 8.0 mph 88 % 0.0 in
06:09 -3.8 °F -5.5 °F 1016.1 in SE 11.1 mph 11.1 mph 88 % 0.0 in
06:14 -3.8 °F -5.5 °F 1016.1 in ESE 14.5 mph 14.5 mph 88 % 0.0 in
06:19 -3.8 °F -5.3 °F 1016.1 in ESE 9.7 mph 11.3 mph 89 % 0.0 in
06:24 -3.8 °F -5.4 °F 1016.1 in ESE 9.7 mph 12.9 mph 89 % 0.0 in
06:29 -3.8 °F -5.4 °F 1016.1 in ESE 9.7 mph 9.7 mph 89 % 0.0 in
06:34 -3.9 °F -5.4 °F 1016.1 in ESE 9.7 mph 11.3 mph 89 % 0.0 in
06:39 -3.9 °F -5.5 °F 1016.1 in ESE 9.7 mph 9.7 mph 89 % 0.0 in
06:44 -4.0 °F -5.6 °F 1015.8 in ESE 9.7 mph 9.7 mph 89 % 0.0 in
06:49 -4.0 °F -5.6 °F 1015.8 in ESE 8.0 mph 14.5 mph 89 % 0.0 in
06:54 -4.1 °F -5.6 °F 1015.8 in SE 9.7 mph 9.7 mph 89 % 0.0 in
06:59 -4.1 °F -5.8 °F 1015.8 in ESE 9.7 mph 9.7 mph 88 % 0.0 in
07:04 -4.1 °F -5.8 °F 1015.8 in ESE 8.0 mph 9.7 mph 88 % 0.0 in
07:09 -4.2 °F -5.8 °F 1015.8 in SE 14.8 mph 14.8 mph 88 % 0.0 in
07:14 -4.2 °F -5.8 °F 1015.8 in ESE 9.7 mph 14.5 mph 88 % 0.0 in
07:19 -4.2 °F -5.8 °F 1015.8 in ESE 9.7 mph 11.3 mph 88 % 0.0 in
07:24 -4.2 °F -5.8 °F 1015.8 in ESE 9.7 mph 11.3 mph 88 % 0.0 in
07:29 -4.2 °F -5.9 °F 1015.8 in ESE 8.0 mph 11.3 mph 88 % 0.0 in
07:34 -4.2 °F -5.9 °F 1015.8 in ESE 9.7 mph 11.3 mph 88 % 0.0 in
07:39 -4.2 °F -5.9 °F 1015.8 in ESE 8.0 mph 9.7 mph 88 % 0.0 in
07:44 -4.3 °F -5.9 °F 1015.8 in ESE 8.0 mph 9.7 mph 88 % 0.0 in
07:49 -4.3 °F -6.0 °F 1015.8 in ESE 8.0 mph 14.5 mph 88 % 0.0 in
07:54 -4.3 °F -6.0 °F 1015.8 in SE 8.0 mph 11.3 mph 88 % 0.0 in
07:59 -4.3 °F -6.0 °F 1015.8 in SE 4.8 mph 8.0 mph 88 % 0.0 in
08:04 -4.3 °F -6.2 °F 1016.1 in ESE 8.0 mph 11.3 mph 87 % 0.0 in
08:09 -4.3 °F -6.2 °F 1016.1 in SE 8.0 mph 16.1 mph 87 % 0.0 in
08:14 -4.3 °F -6.2 °F 1016.1 in SE 8.0 mph 9.7 mph 87 % 0.0 in
08:19 -4.3 °F -6.2 °F 1015.8 in SE 8.0 mph 11.3 mph 87 % 0.0 in
08:24 -4.3 °F -6.2 °F 1015.8 in SE 8.0 mph 11.3 mph 87 % 0.0 in
08:29 -4.3 °F -5.9 °F 1015.8 in SE 9.7 mph 16.1 mph 88 % 0.0 in
08:34 -4.2 °F -6.1 °F 1015.8 in SE 9.7 mph 19.3 mph 87 % 0.0 in
08:39 -4.1 °F -5.9 °F 1015.8 in ESE 9.7 mph 14.5 mph 87 % 0.0 in
08:44 -4.0 °F -5.8 °F 1015.8 in ESE 11.3 mph 16.1 mph 87 % 0.0 in
08:49 -3.9 °F -5.7 °F 1015.8 in ESE 9.7 mph 14.5 mph 87 % 0.0 in
08:54 -3.8 °F -5.6 °F 1015.8 in ESE 9.7 mph 16.1 mph 87 % 0.0 in
08:59 -3.7 °F -5.6 °F 1015.8 in ESE 17.7 mph 17.7 mph 87 % 0.0 in
09:04 -3.6 °F -5.4 °F 1015.8 in ESE 18.5 mph 18.5 mph 87 % 0.0 in
09:09 -3.4 °F -5.3 °F 1015.8 in SSE 16.7 mph 16.7 mph 87 % 0.0 in
09:14 -3.3 °F -5.2 °F 1015.8 in ESE 18.5 mph 18.5 mph 87 % 0.0 in
09:19 -3.2 °F -5.2 °F 1015.8 in ESE 20.4 mph 20.4 mph 86 % 0.0 in
09:24 -3.1 °F -5.1 °F 1015.8 in SE 19.3 mph 19.3 mph 86 % 0.0 in
09:29 -3.0 °F -5.0 °F 1015.8 in SE 16.7 mph 16.7 mph 86 % 0.0 in
09:34 -2.9 °F -5.1 °F 1015.8 in ESE 14.8 mph 14.8 mph 85 % 0.0 in
09:39 -2.8 °F -4.9 °F 1015.8 in East 18.5 mph 18.5 mph 85 % 0.0 in
09:44 -2.7 °F -5.0 °F 1015.8 in SSE 16.7 mph 16.7 mph 84 % 0.0 in
09:49 -2.5 °F -5.0 °F 1015.8 in ESE 22.5 mph 22.5 mph 83 % 0.0 in
09:54 -2.4 °F -5.1 °F 1015.8 in ESE 17.7 mph 17.7 mph 82 % 0.0 in
09:59 -2.3 °F -4.9 °F 1015.8 in East 14.8 mph 14.8 mph 82 % 0.0 in
10:04 -2.2 °F -4.8 °F 1015.8 in SE 20.9 mph 20.9 mph 82 % 0.0 in
10:09 -2.1 °F -4.7 °F 1015.8 in SE 20.4 mph 20.4 mph 82 % 0.0 in
10:14 -1.9 °F -4.6 °F 1015.8 in ESE 17.7 mph 17.7 mph 82 % 0.0 in
10:19 -1.8 °F -4.6 °F 1015.8 in SE 18.5 mph 18.5 mph 81 % 0.0 in
10:24 -1.7 °F -4.5 °F 1015.8 in ESE 16.7 mph 16.7 mph 81 % 0.0 in
10:29 -1.6 °F -4.4 °F 1015.8 in SE 20.4 mph 20.4 mph 81 % 0.0 in
10:34 -1.4 °F -4.4 °F 1015.8 in ESE 22.2 mph 22.2 mph 80 % 0.0 in
10:39 -1.3 °F -4.3 °F 1015.8 in ESE 18.5 mph 18.5 mph 80 % 0.0 in
10:44 -1.1 °F -4.1 °F 1015.8 in ESE 20.4 mph 20.4 mph 80 % 0.0 in
10:49 -0.9 °F -4.1 °F 1015.8 in ESE 18.5 mph 18.5 mph 79 % 0.0 in
10:54 -0.7 °F -3.7 °F 1015.8 in ESE 18.5 mph 18.5 mph 80 % 0.0 in
10:59 -0.6 °F -3.8 °F 1015.8 in SE 18.5 mph 18.5 mph 79 % 0.0 in
11:04 -0.4 °F -3.7 °F 1015.8 in SE 25.9 mph 25.9 mph 79 % 0.0 in
11:09 -0.4 °F -3.6 °F 1015.8 in ESE 3.7 mph 3.7 mph 79 % 0.0 in
11:14 -0.3 °F -3.6 °F 1015.5 in ESE 22.2 mph 22.2 mph 79 % 0.0 in
11:19 -0.3 °F -3.7 °F 1015.5 in ESE 20.4 mph 20.4 mph 78 % 0.0 in
11:24 -0.2 °F -3.6 °F 1015.5 in SE 24.1 mph 24.1 mph 78 % 0.0 in
11:29 -0.1 °F -3.5 °F 1015.5 in SE 18.5 mph 18.5 mph 78 % 0.0 in
11:34 -0.1 °F -3.4 °F 1015.5 in SE 16.7 mph 16.7 mph 78 % 0.0 in
11:39 0.1 °F -3.5 °F 1015.5 in ESE 20.4 mph 20.4 mph 77 % 0.0 in
11:44 0.2 °F -3.6 °F 1015.5 in ESE 18.5 mph 18.5 mph 76 % 0.0 in
11:49 0.2 °F -3.3 °F 1015.5 in ESE 18.5 mph 18.5 mph 77 % 0.0 in
11:54 0.3 °F -3.4 °F 1015.5 in SSE 16.7 mph 16.7 mph 76 % 0.0 in
11:59 0.3 °F -3.4 °F 1015.5 in SE 20.4 mph 20.4 mph 76 % 0.0 in
12:04 0.4 °F -3.6 °F 1015.5 in ESE 22.5 mph 22.5 mph 75 % 0.0 in
12:09 0.4 °F -3.6 °F 1015.5 in East 20.4 mph 20.4 mph 75 % 0.0 in
12:14 0.5 °F -3.4 °F 1015.5 in SE 24.1 mph 24.1 mph 75 % 0.0 in
12:19 0.6 °F -3.6 °F 1015.5 in ESE 18.5 mph 18.5 mph 74 % 0.0 in
12:24 0.6 °F -3.6 °F 1015.5 in ESE 16.7 mph 16.7 mph 74 % 0.0 in
12:29 0.7 °F -3.2 °F 1015.1 in SE 20.4 mph 20.4 mph 75 % 0.0 in
12:34 0.8 °F -3.3 °F 1015.1 in ESE 20.4 mph 20.4 mph 74 % 0.0 in
12:39 0.8 °F -3.4 °F 1015.1 in ESE 20.4 mph 20.4 mph 73 % 0.0 in
12:44 0.9 °F -3.2 °F 1015.1 in SSE 3.7 mph 3.7 mph 74 % 0.0 in
12:49 1.0 °F -3.1 °F 1015.1 in SE 19.3 mph 19.3 mph 74 % 0.0 in
12:54 1.1 °F -3.2 °F 1015.1 in SE 11.3 mph 11.3 mph 73 % 0.0 in
12:59 1.0 °F -3.5 °F 1015.1 in ESE 29.6 mph 29.6 mph 72 % 0.0 in
13:04 0.9 °F -3.6 °F 1014.8 in ESE 20.9 mph 20.9 mph 72 % 0.0 in
13:09 0.9 °F -3.6 °F 1015.1 in SSE 18.5 mph 18.5 mph 72 % 0.0 in
13:14 0.9 °F -3.6 °F 1014.8 in SE 31.5 mph 31.5 mph 72 % 0.0 in
13:19 0.9 °F -3.3 °F 1014.8 in SSE 20.4 mph 20.4 mph 73 % 0.0 in
13:24 1.0 °F -3.3 °F 1014.8 in ESE 22.2 mph 22.2 mph 73 % 0.0 in
13:29 0.9 °F -3.4 °F 1014.8 in ESE 18.5 mph 18.5 mph 73 % 0.0 in
13:34 0.9 °F -3.4 °F 1014.8 in ESE 18.5 mph 18.5 mph 73 % 0.0 in
13:39 0.9 °F -3.3 °F 1014.8 in ESE 19.3 mph 19.3 mph 73 % 0.0 in
13:44 0.9 °F -3.3 °F 1014.8 in SE 22.5 mph 22.5 mph 73 % 0.0 in
13:49 0.9 °F -3.4 °F 1014.8 in SE 11.1 mph 11.1 mph 73 % 0.0 in
13:54 0.9 °F -3.3 °F 1014.8 in SE 18.5 mph 18.5 mph 73 % 0.0 in
13:59 0.9 °F -3.4 °F 1014.8 in SE 20.4 mph 20.4 mph 73 % 0.0 in
14:04 0.9 °F -3.3 °F 1014.8 in ESE 19.3 mph 19.3 mph 73 % 0.0 in
14:09 1.1 °F -3.2 °F 1014.8 in ESE 29.6 mph 29.6 mph 73 % 0.0 in
14:14 1.1 °F -3.4 °F 1014.4 in ESE 24.1 mph 24.1 mph 72 % 0.0 in
14:19 1.1 °F -3.4 °F 1014.8 in SE 20.4 mph 20.4 mph 72 % 0.0 in
14:24 1.2 °F -3.2 °F 1014.4 in East 13.0 mph 13.0 mph 73 % 0.0 in
14:29 1.3 °F -3.2 °F 1014.8 in ESE 16.1 mph 16.1 mph 72 % 0.0 in
14:34 1.4 °F -3.1 °F 1014.8 in SE 20.4 mph 20.4 mph 72 % 0.0 in
14:39 1.3 °F -3.2 °F 1014.8 in South 20.4 mph 20.4 mph 72 % 0.0 in
14:44 1.2 °F -3.1 °F 1014.8 in SE 18.5 mph 18.5 mph 73 % 0.0 in
14:49 1.2 °F -3.1 °F 1014.8 in SE 3.7 mph 3.7 mph 73 % 0.0 in
14:54 1.2 °F -3.1 °F 1014.8 in SE 20.9 mph 20.9 mph 73 % 0.0 in
14:59 1.1 °F -3.2 °F 1014.8 in ENE 11.1 mph 11.1 mph 73 % 0.0 in
15:04 1.0 °F -3.3 °F 1014.8 in SE 17.7 mph 17.7 mph 73 % 0.0 in
15:09 0.9 °F -3.3 °F 1014.8 in ESE 16.7 mph 16.7 mph 73 % 0.0 in
15:14 0.8 °F -3.4 °F 1014.8 in ESE 14.5 mph 14.5 mph 73 % 0.0 in
15:19 0.7 °F -3.4 °F 1014.8 in SSE 18.5 mph 18.5 mph 74 % 0.0 in
15:24 0.6 °F -3.5 °F 1014.8 in SE 3.7 mph 3.7 mph 74 % 0.0 in
15:29 0.5 °F -3.4 °F 1014.8 in SE 3.2 mph 3.2 mph 75 % 0.0 in
15:34 0.4 °F -3.3 °F 1014.8 in East 14.8 mph 14.8 mph 76 % 0.0 in
15:39 0.3 °F -3.4 °F 1014.4 in ESE 9.3 mph 9.3 mph 76 % 0.0 in
15:44 0.2 °F -3.3 °F 1014.4 in ESE 11.1 mph 11.1 mph 77 % 0.0 in
15:49 0.1 °F -3.5 °F 1014.4 in East 9.3 mph 9.3 mph 77 % 0.0 in
15:54 -0.1 °F -3.6 °F 1014.8 in ENE 14.8 mph 14.8 mph 77 % 0.0 in
15:59 -0.2 °F -3.7 °F 1014.8 in ESE 3.7 mph 3.7 mph 77 % 0.0 in
16:04 -0.3 °F -3.7 °F 1014.4 in East 17.7 mph 17.7 mph 78 % 0.0 in
16:09 -0.4 °F -3.8 °F 1014.8 in East 18.5 mph 18.5 mph 78 % 0.0 in
16:14 -0.5 °F -3.9 °F 1014.8 in ESE 14.8 mph 14.8 mph 78 % 0.0 in
16:19 -0.6 °F -3.9 °F 1014.8 in ESE 3.7 mph 3.7 mph 78 % 0.0 in
16:24 -0.7 °F -4.1 °F 1014.8 in ESE 3.7 mph 3.7 mph 78 % 0.0 in
16:29 -0.8 °F -3.9 °F 1014.8 in SE 3.7 mph 3.7 mph 79 % 0.0 in
16:34 -0.8 °F -4.0 °F 1014.8 in ESE 1.9 mph 1.9 mph 79 % 0.0 in
16:39 -0.9 °F -3.9 °F 1014.8 in East 1.9 mph 1.9 mph 80 % 0.0 in
16:44 -1.0 °F -4.0 °F 1014.4 in East 1.9 mph 1.9 mph 80 % 0.0 in
16:49 -1.1 °F -3.9 °F 1014.8 in ESE 3.7 mph 3.7 mph 81 % 0.0 in
16:54 -1.2 °F -3.8 °F 1014.4 in ESE 14.8 mph 14.8 mph 82 % 0.0 in
16:59 -1.2 °F -3.9 °F 1014.4 in ESE 1.9 mph 1.9 mph 82 % 0.0 in
17:04 -1.3 °F -3.9 °F 1014.4 in ESE 3.7 mph 3.7 mph 82 % 0.0 in
17:09 -1.4 °F -4.1 °F 1014.4 in East 18.5 mph 18.5 mph 82 % 0.0 in
17:14 -1.4 °F -4.1 °F 1014.4 in ESE 16.7 mph 16.7 mph 82 % 0.0 in
17:19 -1.5 °F -4.2 °F 1014.4 in ESE 16.7 mph 16.7 mph 82 % 0.0 in
17:24 -1.6 °F -4.1 °F 1014.4 in ESE 14.5 mph 14.5 mph 83 % 0.0 in
17:29 -1.6 °F -4.1 °F 1014.4 in East 14.8 mph 14.8 mph 83 % 0.0 in
17:34 -1.7 °F -4.2 °F 1014.4 in ESE 11.1 mph 11.1 mph 83 % 0.0 in
17:39 -1.8 °F -4.3 °F 1014.4 in East 9.3 mph 9.3 mph 83 % 0.0 in
17:44 -1.8 °F -4.2 °F 1014.8 in East 11.1 mph 11.1 mph 84 % 0.0 in
17:49 -1.9 °F -4.3 °F 1014.8 in ESE 9.3 mph 9.3 mph 84 % 0.0 in
17:54 -2.1 °F -4.4 °F 1014.8 in East 8.0 mph 8.0 mph 84 % 0.0 in
17:59 -2.1 °F -4.3 °F 1014.8 in East 11.1 mph 11.1 mph 85 % 0.0 in
18:04 -2.2 °F -4.4 °F 1014.8 in East 11.1 mph 11.1 mph 85 % 0.0 in
18:09 -2.3 °F -4.4 °F 1014.8 in East 11.1 mph 11.1 mph 85 % 0.0 in
18:14 -2.3 °F -4.5 °F 1014.8 in ESE 14.5 mph 14.5 mph 85 % 0.0 in
18:19 -2.3 °F -4.3 °F 1014.8 in ESE 11.3 mph 11.3 mph 86 % 0.0 in
18:24 -2.4 °F -4.4 °F 1014.8 in ESE 14.8 mph 14.8 mph 86 % 0.0 in
18:29 -2.4 °F -4.4 °F 1014.8 in ESE 9.7 mph 9.7 mph 86 % 0.0 in
18:34 -2.4 °F -4.4 °F 1014.8 in ESE 16.7 mph 16.7 mph 86 % 0.0 in
18:39 -2.4 °F -4.4 °F 1014.8 in ESE 9.3 mph 9.3 mph 86 % 0.0 in
18:44 -2.4 °F -4.4 °F 1014.8 in SE 9.7 mph 9.7 mph 86 % 0.0 in
18:49 -2.4 °F -4.4 °F 1014.8 in ESE 12.9 mph 12.9 mph 86 % 0.0 in
18:54 -2.4 °F -4.4 °F 1014.8 in ESE 14.8 mph 14.8 mph 86 % 0.0 in
18:59 -2.4 °F -4.4 °F 1014.8 in ESE 14.8 mph 14.8 mph 86 % 0.0 in
19:04 -2.4 °F -4.4 °F 1014.8 in ESE 14.8 mph 14.8 mph 86 % 0.0 in
19:09 -2.4 °F -4.4 °F 1014.8 in ESE 11.1 mph 11.1 mph 86 % 0.0 in
19:14 -2.5 °F -4.5 °F 1014.8 in SE 7.4 mph 7.4 mph 86 % 0.0 in
19:19 -2.5 °F -4.5 °F 1015.1 in ESE 13.0 mph 13.0 mph 86 % 0.0 in
19:24 -2.6 °F -4.6 °F 1014.8 in ESE 14.8 mph 14.8 mph 86 % 0.0 in
19:29 -2.6 °F -4.4 °F 1014.8 in ESE 13.0 mph 13.0 mph 87 % 0.0 in
19:34 -2.6 °F -4.5 °F 1014.8 in ESE 14.8 mph 14.8 mph 87 % 0.0 in
19:39 -2.6 °F -4.5 °F 1015.1 in ESE 16.7 mph 16.7 mph 87 % 0.0 in
19:44 -2.6 °F -4.4 °F 1015.1 in SE 18.5 mph 18.5 mph 87 % 0.0 in
19:49 -2.6 °F -4.4 °F 1015.1 in SE 9.3 mph 9.3 mph 87 % 0.0 in
19:54 -2.6 °F -4.5 °F 1015.1 in ESE 7.4 mph 7.4 mph 87 % 0.0 in
19:59 -2.7 °F -4.6 °F 1015.1 in ESE 8.0 mph 8.0 mph 87 % 0.0 in
20:04 -2.7 °F -4.6 °F 1015.1 in SE 9.7 mph 9.7 mph 87 % 0.0 in
20:09 -2.8 °F -4.7 °F 1015.1 in ESE 11.1 mph 11.1 mph 87 % 0.0 in
20:14 -2.8 °F -4.7 °F 1015.1 in SE 14.8 mph 14.8 mph 87 % 0.0 in
20:19 -2.9 °F -4.8 °F 1015.1 in East 5.6 mph 5.6 mph 87 % 0.0 in
20:24 -2.9 °F -4.7 °F 1015.1 in ESE 7.4 mph 7.4 mph 88 % 0.0 in
20:29 -3.0 °F -4.8 °F 1015.1 in ESE 5.6 mph 5.6 mph 87 % 0.0 in
20:34 -3.1 °F -4.8 °F 1015.1 in ESE 7.4 mph 7.4 mph 88 % 0.0 in
20:39 -3.1 °F -4.8 °F 1015.1 in ESE 5.6 mph 5.6 mph 88 % 0.0 in
20:44 -3.2 °F -4.9 °F 1015.1 in ESE 9.3 mph 9.3 mph 88 % 0.0 in
20:49 -3.2 °F -4.9 °F 1015.1 in ESE 16.7 mph 16.7 mph 88 % 0.0 in
20:54 -3.2 °F -4.8 °F 1015.1 in ESE 11.1 mph 11.1 mph 89 % 0.0 in
20:59 -3.2 °F -4.8 °F 1015.1 in SE 7.4 mph 7.4 mph 89 % 0.0 in
21:04 -3.2 °F -4.7 °F 1015.1 in ESE 8.0 mph 8.0 mph 89 % 0.0 in
21:09 -3.2 °F -4.7 °F 1015.1 in ESE 9.3 mph 9.3 mph 89 % 0.0 in
21:14 -3.2 °F -4.7 °F 1015.1 in SE 7.4 mph 7.4 mph 89 % 0.0 in
21:19 -3.2 °F -4.7 °F 1015.1 in ESE 5.6 mph 5.6 mph 89 % 0.0 in
21:24 -3.2 °F -4.7 °F 1015.1 in ESE 8.0 mph 8.0 mph 89 % 0.0 in
21:29 -3.2 °F -4.9 °F 1015.5 in ESE 5.6 mph 5.6 mph 88 % 0.0 in
21:34 -3.3 °F -5.0 °F 1015.1 in SE 8.0 mph 8.0 mph 88 % 0.0 in
21:39 -3.3 °F -4.8 °F 1015.5 in ESE 7.4 mph 7.4 mph 89 % 0.0 in
21:44 -3.3 °F -4.9 °F 1015.5 in ESE 11.1 mph 11.1 mph 89 % 0.0 in
21:49 -3.3 °F -4.8 °F 1015.5 in ESE 11.3 mph 11.3 mph 89 % 0.0 in
21:54 -3.2 °F -4.8 °F 1015.5 in ESE 11.1 mph 11.1 mph 89 % 0.0 in
21:59 -3.2 °F -4.8 °F 1015.5 in ESE 8.0 mph 8.0 mph 89 % 0.0 in
22:04 -3.2 °F -4.7 °F 1015.1 in ESE 11.1 mph 11.1 mph 89 % 0.0 in
22:10 -3.1 °F -4.7 °F 1015.1 in East 11.1 mph 11.1 mph 89 % 0.0 in
22:15 -3.0 °F -4.6 °F 1015.1 in ESE 16.7 mph 16.7 mph 89 % 0.0 in
22:20 -2.9 °F -4.7 °F 1015.1 in ESE 9.7 mph 9.7 mph 88 % 0.0 in
22:25 -2.8 °F -4.6 °F 1015.1 in ESE 8.0 mph 9.7 mph 88 % 0.0 in
22:30 -2.8 °F -4.5 °F 1015.1 in ESE 9.3 mph 9.3 mph 88 % 0.0 in
22:35 -2.7 °F -4.4 °F 1015.1 in ESE 11.3 mph 11.3 mph 88 % 0.0 in
22:40 -2.7 °F -4.6 °F 1015.1 in SE 9.3 mph 9.3 mph 87 % 0.0 in
22:45 -2.7 °F -4.6 °F 1015.1 in ESE 8.0 mph 8.0 mph 87 % 0.0 in
22:50 -2.7 °F -4.6 °F 1015.1 in East 7.4 mph 7.4 mph 87 % 0.0 in
22:55 -2.7 °F -4.6 °F 1015.1 in ESE 1.6 mph 4.8 mph 87 % 0.0 in
23:00 -2.8 °F -4.7 °F 1015.1 in ESE 4.8 mph 9.7 mph 87 % 0.0 in
23:05 -2.8 °F -4.7 °F 1015.1 in ESE 4.8 mph 6.4 mph 87 % 0.0 in
23:10 -2.9 °F -4.8 °F 1015.1 in ESE 7.4 mph 7.4 mph 87 % 0.0 in
23:15 -2.9 °F -4.8 °F 1015.1 in ESE 1.6 mph 6.4 mph 87 % 0.0 in
23:20 -2.9 °F -4.7 °F 1015.5 in ESE 5.6 mph 5.6 mph 88 % 0.0 in
23:25 -3.0 °F -4.7 °F 1015.5 in ESE 6.4 mph 6.4 mph 88 % 0.0 in
23:30 -3.1 °F -4.8 °F 1015.5 in East 6.4 mph 6.4 mph 88 % 0.0 in
23:35 -3.1 °F -4.8 °F 1015.5 in ESE 5.6 mph 5.6 mph 88 % 0.0 in
23:40 -3.2 °F -4.9 °F 1015.5 in ESE 5.6 mph 5.6 mph 88 % 0.0 in
23:45 -3.2 °F -4.9 °F 1015.5 in ESE 6.4 mph 6.4 mph 88 % 0.0 in
23:50 -3.3 °F -5.0 °F 1015.5 in SE 5.6 mph 5.6 mph 88 % 0.0 in
23:55 -3.3 °F -5.0 °F 1015.5 in ESE 5.6 mph 5.6 mph 88 % 0.0 in
Vejr3
tilladelse af Weather Underground - 4 mb

script udviklet af  Jim McMurry - jmcmurry@mwt.net tilpasset til dette template  Wim van der Kuil - Leuven-Template.eu

du finder også vores vejrinformationer på:

European Weather Network

Weather Underground

AWEKAS

WeatherlinkIP

Citizen Weather Observer Program (CWOP)

udstyr som vi anvender:

vejrstation
Davis VP2+

vejrprogram
Weather Display

vejrserver
Dell E6400

hjemmeside host
Webhosting.dk

Davis VP2+

Weather Display

Dell E6400

Webhosting.dk